PY1AU-13 Weather Reports


time (UTC)temp
C
wind
direction
speed
KPH
gust
KPH
rain 1hr
cm
rain 24hr
cm
rain mn
cm
humidity
%
barometer
mb
20260504221844 26 0.0 0.0 0.00 0.00 0.00 72 1020.5
20260504221344 26 0.0 0.0 0.00 0.00 0.00 73 1020.7
20260504220844 26 0.0 0.0 0.00 0.00 0.00 72 1020.5
20260504220345 26 0.0 0.0 0.00 0.00 0.00 73 1020.5
20260504215844 26 0.0 0.0 0.00 0.00 0.00 73 1020.4
20260504215344 26 0.0 0.0 0.00 0.00 0.00 74 1020.3
20260504214844 26 0.0 0.0 0.00 0.00 0.00 75 1020.3
20260504214344 26 0.0 0.0 0.00 0.00 0.00 75 1020.2
20260504213844 26 0.0 0.0 0.00 0.00 0.00 76 1020.3
20260504213344 26 0.0 0.0 0.00 0.00 0.00 75 1020.2
20260504212844 26 0.0 0.0 0.00 0.00 0.00 75 1020.2
20260504212344 26 0.0 0.0 0.00 0.00 0.00 75 1020.0
20260504211845 26 0.0 0.0 0.00 0.00 0.00 75 1020.0
20260504211344 26 0.0 0.0 0.00 0.00 0.00 75 1019.9
20260504210844 26 0.0 0.0 0.00 0.00 0.00 75 1019.9
20260504210344 26 0.0 0.0 0.00 0.00 0.00 76 1019.9
20260504205844 26 0.0 0.0 0.00 0.00 0.00 76 1019.9
20260504205344 26 0.0 0.0 0.00 0.00 0.00 77 1019.8
20260504204844 26 0.0 0.0 0.00 0.00 0.00 77 1019.8
20260504204344 26 0.0 0.0 0.00 0.00 0.00 77 1019.9
20260504203844 26 0.0 0.0 0.00 0.00 0.00 77 1019.8
20260504203344 26 0.0 0.0 0.00 0.00 0.00 76 1019.8
20260504202844 27 0.0 0.0 0.00 0.00 0.00 76 1019.8
20260504202344 27 0.0 0.0 0.00 0.00 0.00 76 1019.8
20260504201844 27 0.0 0.0 0.00 0.00 0.00 76 1019.6
20260504201344 27 0.0 0.0 0.00 0.00 0.00 75 1019.5
20260504200844 27 0.0 0.0 0.00 0.00 0.00 75 1019.6
20260504200344 27 0.0 0.0 0.00 0.00 0.00 75 1019.5
20260504195844 27 0.0 0.0 0.00 0.00 0.00 75 1019.5
20260504195344 27 0.0 0.0 0.00 0.00 0.00 74 1019.5
20260504194844 27 0.0 0.0 0.00 0.00 0.00 74 1019.5
20260504194344 27 0.0 0.0 0.00 0.00 0.00 74 1019.4
20260504193844 27 0.0 0.0 0.00 0.00 0.00 73 1019.4
20260504193344 27 0.0 0.0 0.00 0.00 0.00 73 1019.5
20260504192844 27 0.0 0.0 0.00 0.00 0.00 72 1019.5
20260504192344 27 0.0 0.0 0.00 0.00 0.00 71 1019.6
20260504191844 27 0.0 0.0 0.00 0.00 0.00 70 1019.6
20260504191344 27 0.0 0.0 0.00 0.00 0.00 70 1019.5
20260504190844 27 0.0 0.0 0.00 0.00 0.00 71 1019.5
20260504190344 27 0.0 0.0 0.00 0.00 0.00 70 1019.4
20260504185844 27 0.0 0.0 0.00 0.00 0.00 70 1019.4
20260504185344 27 0.0 0.0 0.00 0.00 0.00 70 1019.3
20260504184844 27 0.0 0.0 0.00 0.00 0.00 70 1019.3
20260504184344 27 0.0 0.0 0.00 0.00 0.00 70 1019.2
20260504183844 27 0.0 0.0 0.00 0.00 0.00 70 1019.2
20260504183344 27 0.0 0.0 0.00 0.00 0.00 71 1019.2
20260504182844 27 0.0 0.0 0.00 0.00 0.00 72 1019.3
20260504182344 27 0.0 0.0 0.00 0.00 0.00 75 1019.3
20260504181844 27 0.0 0.0 0.00 0.00 0.00 75 1019.4
20260504181344 27 0.0 0.0 0.00 0.00 0.00 74 1019.5
20260504180844 27 0.0 0.0 0.00 0.00 0.00 73 1019.5
20260504180344 27 0.0 0.0 0.00 0.00 0.00 72 1019.6
20260504175844 27 0.0 0.0 0.00 0.00 0.00 72 1019.5
20260504175344 27 0.0 0.0 0.00 0.00 0.00 73 1019.6
20260504174844 27 0.0 0.0 0.00 0.00 0.00 73 1019.6
20260504174344 27 0.0 0.0 0.00 0.00 0.00 73 1019.7
20260504173844 26 0.0 0.0 0.00 0.00 0.00 73 1019.8
20260504173344 26 0.0 0.0 0.00 0.00 0.00 73 1019.8
20260504172844 26 0.0 0.0 0.00 0.00 0.00 72 1019.9
20260504172344 26 0.0 0.0 0.00 0.00 0.00 72 1019.9
20260504171844 26 0.0 0.0 0.00 0.00 0.00 71 1019.9
20260504171344 27 0.0 0.0 0.00 0.00 0.00 70 1020.0
20260504170844 27 0.0 0.0 0.00 0.00 0.00 71 1020.0
20260504170344 27 0.0 0.0 0.00 0.00 0.00 70 1020.1
20260504160344 27 0.0 0.0 0.00 0.00 0.00 69 1020.6
20260504150844 26 0.0 0.0 0.00 0.00 0.00 71 1021.4
20260504150344 26 0.0 0.0 0.00 0.00 0.00 72 1021.5
20260504140844 26 0.0 0.0 0.00 0.00 0.00 76 1022.5
20260504140344 26 0.0 0.0 0.00 0.00 0.00 77 1022.5
20260504130344 26 0.0 0.0 0.00 0.00 0.00 83 1023.2
20260504110344 26 0.0 0.0 0.00 0.00 0.00 81 1022.3
20260504100344 26 0.0 0.0 0.00 0.00 0.00 83 1022.0
20260504081843 26 0.0 0.0 0.00 0.00 0.00 83 1021.5
20260504081344 26 0.0 0.0 0.00 0.00 0.00 83 1021.5
20260504080844 26 0.0 0.0 0.00 0.00 0.00 83 1021.4
20260504080343 26 0.0 0.0 0.00 0.00 0.00 83 1021.4
20260504070344 26 0.0 0.0 0.00 0.00 0.00 82 1021.1
20260504050343 26 0.0 0.0 0.00 0.00 0.00 84 1021.5
20260504045843 26 0.0 0.0 0.00 0.00 0.00 84 1021.6
20260504045343 26 0.0 0.0 0.00 0.00 0.00 84 1021.6
20260504044843 26 0.0 0.0 0.00 0.00 0.00 84 1021.7
20260504044343 26 0.0 0.0 0.00 0.00 0.00 84 1021.6
20260504043843 26 0.0 0.0 0.00 0.00 0.00 84 1021.7
20260504043343 26 0.0 0.0 0.00 0.00 0.00 84 1021.8
20260504042843 26 0.0 0.0 0.00 0.00 0.00 84 1022.0
20260504042343 26 0.0 0.0 0.00 0.00 0.00 84 1022.0
20260504041843 26 0.0 0.0 0.00 0.00 0.00 84 1022.0
20260504041343 26 0.0 0.0 0.00 0.00 0.00 84 1022.0
20260504040843 26 0.0 0.0 0.00 0.00 0.00 84 1022.1
20260504040343 26 0.0 0.0 0.00 0.00 0.00 83 1022.2
20260504035843 26 0.0 0.0 0.00 0.00 0.00 83 1022.2
20260504035343 26 0.0 0.0 0.00 0.00 0.00 83 1022.3
20260504034843 26 0.0 0.0 0.00 0.00 0.00 83 1022.2
20260504034343 26 0.0 0.0 0.00 0.00 0.00 83 1022.3
20260504033843 26 0.0 0.0 0.00 0.00 0.00 83 1022.3
20260504033343 26 0.0 0.0 0.00 0.00 0.00 83 1022.3
20260504032843 26 0.0 0.0 0.00 0.00 0.00 83 1022.4
20260504032343 26 0.0 0.0 0.00 0.00 0.00 83 1022.4
20260504031843 26 0.0 0.0 0.00 0.00 0.00 83 1022.4
20260504031343 26 0.0 0.0 0.00 0.00 0.00 83 1022.4
20260504030843 26 0.0 0.0 0.00 0.00 0.00 83 1022.4
20260504030343 26 0.0 0.0 0.00 0.00 0.00 83 1022.5
20260504025843 26 0.0 0.0 0.00 0.00 0.00 83 1022.4
20260504025343 26 0.0 0.0 0.00 0.00 0.00 83 1022.5
20260504024843 26 0.0 0.0 0.00 0.00 0.00 83 1022.6
20260504024343 26 0.0 0.0 0.00 0.00 0.00 83 1022.6
20260504023843 26 0.0 0.0 0.00 0.00 0.00 83 1022.6
20260504023343 26 0.0 0.0 0.00 0.00 0.00 82 1022.6
20260504022843 26 0.0 0.0 0.00 0.00 0.00 82 1022.6
20260504022343 26 0.0 0.0 0.00 0.00 0.00 82 1022.6
20260504021843 26 0.0 0.0 0.00 0.00 0.00 82 1022.6
20260504021343 26 0.0 0.0 0.00 0.00 0.00 82 1022.7
20260504020843 26 0.0 0.0 0.00 0.00 0.00 82 1022.8
20260504020343 26 0.0 0.0 0.00 0.00 0.00 82 1022.8
20260504015843 26 0.0 0.0 0.00 0.00 0.00 82 1022.8
20260504015343 26 0.0 0.0 0.00 0.00 0.00 81 1022.8
20260504014843 26 0.0 0.0 0.00 0.00 0.00 81 1022.8
20260504014343 26 0.0 0.0 0.00 0.00 0.00 81 1022.8
20260504013843 26 0.0 0.0 0.00 0.00 0.00 81 1022.8
20260504013343 26 0.0 0.0 0.00 0.00 0.00 81 1022.8
20260504012843 26 0.0 0.0 0.00 0.00 0.00 81 1022.8
20260504012343 26 0.0 0.0 0.00 0.00 0.00 81 1022.8
20260504011843 26 0.0 0.0 0.00 0.00 0.00 81 1022.8
20260504011343 26 0.0 0.0 0.00 0.00 0.00 81 1022.8
20260504010843 26 0.0 0.0 0.00 0.00 0.00 81 1022.8
20260504010343 26 0.0 0.0 0.00 0.00 0.00 81 1022.8
20260504005843 26 0.0 0.0 0.00 0.00 0.00 80 1022.9
20260504005343 26 0.0 0.0 0.00 0.00 0.00 80 1022.9
20260504004843 26 0.0 0.0 0.00 0.00 0.00 80 1022.9
20260504004343 26 0.0 0.0 0.00 0.00 0.00 80 1022.9
20260504003843 26 0.0 0.0 0.00 0.00 0.00 80 1022.8
20260504003343 26 0.0 0.0 0.00 0.00 0.00 80 1022.9
20260504002843 26 0.0 0.0 0.00 0.00 0.00 80 1022.7
20260504002343 26 0.0 0.0 0.00 0.00 0.00 81 1022.7
20260504001843 26 0.0 0.0 0.00 0.00 0.00 82 1022.7
20260504001343 26 0.0 0.0 0.00 0.00 0.00 82 1022.6
20260504000843 26 0.0 0.0 0.00 0.00 0.00 82 1022.7
20260504000343 26 0.0 0.0 0.00 0.00 0.00 82 1022.7
20260503235843 26 0.0 0.0 0.00 0.00 0.00 81 1022.7
20260503235343 26 0.0 0.0 0.00 0.00 0.00 82 1022.7
20260503234843 26 0.0 0.0 0.00 0.00 0.00 82 1022.6
20260503234343 26 0.0 0.0 0.00 0.00 0.00 82 1022.6
20260503233843 26 0.0 0.0 0.00 0.00 0.00 82 1022.7
20260503233343 26 0.0 0.0 0.00 0.00 0.00 82 1022.6
20260503232843 26 0.0 0.0 0.00 0.00 0.00 82 1022.6
20260503232343 26 0.0 0.0 0.00 0.00 0.00 82 1022.8
20260503231843 26 0.0 0.0 0.00 0.00 0.00 82 1022.8
20260503231343 26 0.0 0.0 0.00 0.00 0.00 81 1022.7
20260503230843 26 0.0 0.0 0.00 0.00 0.00 81 1022.8
20260503230343 26 0.0 0.0 0.00 0.00 0.00 80 1022.6
20260503225843 26 0.0 0.0 0.00 0.00 0.00 80 1022.4
20260503225343 26 0.0 0.0 0.00 0.00 0.00 80 1022.4
20260503224843 26 0.0 0.0 0.00 0.00 0.00 80 1022.3
20260503224343 26 0.0 0.0 0.00 0.00 0.00 80 1022.3
20260503223843 26 0.0 0.0 0.00 0.00 0.00 81 1022.3
20260503223343 26 0.0 0.0 0.00 0.00 0.00 81 1022.2
20260503222843 26 0.0 0.0 0.00 0.00 0.00 81 1022.1
20260503222346 26 0.0 0.0 0.00 0.00 0.00 81 1022.2